Regional Weather Roundup
Issued by NWS

Home | Current Version | Previous Version | Graphics & Text | Print | Product List | Glossary On
Versions: 1 2 3 4 5 6 7 8 9 10 11 12 13 14 15 16 17 18 19 20 21 22 23 24 25 26 27 28 29 30 31 32 33 34 35 36 37 38 39 40 41 42 43 44 45 46 47 48 49 50
000
ASUS43 KMPX 231801
RWRMN
WEATHER ROUNDUP FOR MINNESOTA
NATIONAL WEATHER SERVICE TWIN CITIES/CHANHASSEN MN
100 PM CDT TUE AUG 23 2016


NOTE: "FAIR" INDICATES FEW OR NO CLOUDS BELOW 12,000 FEET WITH NO
SIGNIFICANT WEATHER AND/OR OBSTRUCTIONS TO VISIBILITY. N/A MEANS
CURRENT SKY AND/OR WEATHER CONDITIONS ARE NOT AVAILABLE.

MNZ060>063-068>070-231900-
   Twin Cities Metro

CITY           SKY/WX    TMP DP  RH WIND       PRES   REMARKS
TWIN CITIES    CLOUDY    82  67  60 S17       29.91F
6HR MIN TEMP:  67; 6HR MAX TEMP:  82;

ST PAUL        MOSUNNY   81  68  64 S14       29.92F
CRYSTAL        CLOUDY    80  64  58 S14       29.90S
BLAINE         PTSUNNY   82  68  61 S12G20    29.91S
LAKEVILLE      PTSUNNY   79  70  73 S13G21    29.93S
EDEN PRAIRIE   PTSUNNY   84  69  60 S17G23    29.91S
6HR MIN TEMP:  68; 6HR MAX TEMP:  84;

LAKEVILLE      PTSUNNY   79  70  73 S13G21    29.93S
SOUTH ST PAUL  PTSUNNY   82  66  59 S12G21    29.92S
LAKE ELMO      FAIR      81  70  69 SE12G21   29.94F
$$
MNZ001>005-007-008-013>017-022>024-027-028-231900-
   Northwest Minnesota

CITY           SKY/WX    TMP DP  RH WIND       PRES   REMARKS
BEMIDJI        MOSUNNY   80  66  63 S14G21    29.77S
HALLOCK        PTSUNNY   81  66  61 SW12      29.66R
ROSEAU         SUNNY     82  68  61 SE16      29.67F
WARROAD        SUNNY     81  70  69 SE10      29.70R
THIEF RVR FALL PTSUNNY   79  65  62 S16G26    29.67F
CROOKSTON      MOSUNNY   81  66  61 S25G31    29.65R
FOSSTON        SUNNY     81  64  57 S21G26    29.72S
DETROIT LAKES  SUNNY     81  64  57 S18       29.78F
MOORHEAD       SUNNY     82  64  54 S18G24    29.71F
PARK RAPIDS    SUNNY     83  65  54 S16       29.80F
MAHNOMEN       FAIR      80  66  61 S16G22    29.73F
$$
MNZ006-009>011-018-025>026-231900-
   North Central Minnesota

CITY           SKY/WX    TMP DP  RH WIND       PRES   REMARKS
BAUDETTE       CLOUDY    80  66  62 SE15      29.73F
FLAG ISLAND    MOSUNNY   75  66  73 SE6       29.72R
INTL FALLS     CLOUDY    78  65  63 SE9       29.79F
6HR MIN TEMP:  64; 6HR MAX TEMP:  78;

WASKISH        MOSUNNY   77  66  69 SE8       29.75F
BIG FORK       CLOUDY    79  66  65 S10       29.81F
LONGVILLE      SUNNY     81  66  61 S9G16     29.83S
GRAND RAPIDS   SUNNY     80  67  64 S14       29.86S
CRANE LAKE     CLOUDY    75  64  69 S6        29.85F
ORR            CLOUDY    79  63  57 S8        29.81F
COOK           MOSUNNY   77  64  65 S7        29.85F
WALKER         FAIR      79  66  63 S13       29.80S
$$
MNZ012-019>021-037-231900-
   Northeast Minnesota

CITY           SKY/WX    TMP DP  RH WIND       PRES   REMARKS
DULUTH         MOSUNNY   81  65  58 S15G23    29.90F
6HR MIN TEMP:  66; 6HR MAX TEMP:  84;

ELY            CLOUDY    79  64  61 S8        29.87F
HIBBING        CLOUDY    78  65  63 SE12G23   29.86S
EVELETH        MOSUNNY   78  63  60 SE13      29.88S
DULUTH HARBOR  SUNNY     82  66  57 S15       29.87F
TWO HARBORS    SUNNY     81  68  65 S12G21    29.89S
SILVER BAY     MOSUNNY   79  64  61 S9G16     29.89S
GRAND MARAIS     N/A     72  61  68 SW3       29.91F
G MARAIS ARPRT SUNNY     72  61  68 S7        29.96S
$$
MNZ029>031-032-039>041-046>048-054>057-064-231900-
   West Central Minnesota

CITY           SKY/WX    TMP DP  RH WIND       PRES   REMARKS
FERGUS FALLS     N/A     81  66  61 S17       29.77S
WHEATON        SUNNY     84  72  65 S9G20     29.78R
MORRIS         SUNNY     82  66  57 S16G26    29.79R
ALEXANDRIA     SUNNY     81  67  62 S17       29.84S
ELBOW LAKE     FAIR      81  69  67 S16       29.79S
WADENA         SUNNY     81  66  61 S12G21    29.80F
GLENWOOD       SUNNY     81  68  65 S17       29.85R
APPLETON       SUNNY     82  66  57 S15G22    29.79F
BENSON         MOSUNNY   81  66  61 S17       29.82R
ORTONVILLE     SUNNY     82  66  57 S14G22    29.78S
MADISON        SUNNY     81  66  61 S17       29.81R
WILLMAR        FAIR      81  70  69 S9G22     29.86F
$$
MNZ033>034-036-042>043-049>051-058-059-231900-
   Central Minnesota

CITY           SKY/WX    TMP DP  RH WIND       PRES   REMARKS
ST CLOUD       SUNNY     79  68  69 S16       29.88S
6HR MIN TEMP:  66; 6HR MAX TEMP:  79;

SAUK CENTRE    FAIR      79  67  66 S18       29.85S
PAYNESVILLE      N/A    N/A N/A N/A MISG        N/A
AITKIN         SUNNY     82  63  51 S13G23    29.85S
PINE RIVER     SUNNY     79  66  65 S12G18    29.86F
BRAINERD       SUNNY     80  66  62 SE14      29.85S
STAPLES        SUNNY     81  64  57 S12G18    29.82F
LONG PRAIRIE   FAIR      79  66  65 E15       29.85R
LITTLE FALLS   SUNNY     79  63  57 S14       29.86S
LITCHFIELD     MOSUNNY   81  72  74 SE10      29.88F
BUFFALO        CLOUDY    80  66  62 S9G17     29.90S
MAPLE LAKE     SUNNY     81  70  69 S10       29.90S
HUTCHINSON     PTSUNNY   77  69  78 SE10      29.90F
$$
MNZ037-044-045-052-053-231900-
   East Central Minnesota

CITY           SKY/WX    TMP DP  RH WIND       PRES   REMARKS
PRINCETON      SUNNY     82  66  57 SE14G20   29.88F
MORA           SUNNY     77  63  61 S13       29.91S
CAMBRIDGE      SUNNY     82  66  57 S13G18    29.88F
RUSH CITY      SUNNY     79  65  62 S12G20    29.91F
MOOSE LAKE     SUNNY     79  64  61 S9        29.88S
HINCKLEY       FAIR      79  66  65 S8G18     29.91S
CLOQUET        SUNNY     79  63  57 S14       29.90S
MCGREGOR       MOSUNNY   81  66  61 S13G18    29.87F
$$
MNZ071>073-080-081-089-090-097-098-231900-
   Southwest Minnesota

CITY           SKY/WX    TMP DP  RH WIND       PRES   REMARKS
MONTEVIDEO     MOSUNNY   82  70  65 SW18      29.84F
GRANITE FALLS  CLOUDY    82  71  69 SE16      29.86S
CANBY          MOSUNNY   81  67  63 S16G23    29.83R
MARSHALL       MOSUNNY   79  69  71 S20       29.84F
REDWOOD FALLS  PTSUNNY   80  68  66 S22       29.86F
OLIVIA         MOSUNNY   79  68  69 S14       29.86S
PIPESTONE      CLOUDY    73  66  78 S15G22    29.87S
WINDOM         CLOUDY    79  68  69 S10       29.90S
WORTHINGTON    CLOUDY    75  69  81 S15G23    29.91S
JACKSON        CLOUDY    77  66  69 S13       29.92F
TRACY          CLOUDY    79  71  75 S15G25    29.87S
SLAYTON        CLOUDY    73  68  83 S20       29.90R
$$
MNZ065>067-074>077-082>085-091>093-231900-
   South Central Minnesota

CITY           SKY/WX    TMP DP  RH WIND       PRES   REMARKS
MANKATO        SUNNY     79  68  69 S15G22    29.92F
NEW ULM        PTSUNNY   79  70  73 S18       29.90S
ST JAMES       CLOUDY    75  64  69 SE16G23   29.91F
GLENCOE        PTSUNNY   81  71  73 S10G18    29.90S
FARIBAULT      PTSUNNY   81  70  69 SE15G22   29.95F
OWATONNA       MOSUNNY   81  70  69 S12G26    29.96S
WASECA         SUNNY     79  70  73 S15       29.96S
ALBERT LEA     SUNNY     81  68  65 S15G22    29.98S
$$
MNZ078>079-086>088-094>096-231900-
   Southeast Minnesota

CITY           SKY/WX    TMP DP  RH WIND       PRES   REMARKS
ROCHESTER      SUNNY     79  68  69 S17G29    30.01F
6HR MIN TEMP:  62; 6HR MAX TEMP:  79;

RED WING       CLOUDY    81  64  57 S10G20    29.95S
DODGE CENTER   MOSUNNY   81  68  65 S20       29.99F
WINONA         CLOUDY    79  64  61 S6G16     30.01F
AUSTIN         SUNNY     79  66  65 S15G22    30.00S
PRESTON        MOSUNNY   77  66  67 S12G22    30.04F
$$
ABBREVIATIONS USED IN REMARKS
   TC - TEMPERATURES IN CELSIUS
  WCI - WIND CHILL INDEX
   HX - HEAT INDEX
  VSB - VISIBILITY
$$



USA.gov is the U.S. government's official web portal to all federal, state and local government web resources and services.